This demonstration page uses our WeatherBlox Daily Observations layout. Learn more.

Left ArrowRight Arrow

Hourly Observations for January 26, 2017

Temp ( °F °C ) Dew Point ( °F °C ) Humidity (%) Winds ( mph kmh ) Pressure ( in mb ) Visibility ( mi km ) Precip ( " mm )
12:15 am 00:15 Mostly Cloudy 21 -6 15 -9.5 77 77 NW 8 13 30.27 1025 10 16 0.00 0.00
12:35 am 00:35 Mostly Cloudy 21 -6 15 -9.5 77 77 NW 7 11 30.27 1025 10 16 0.00 0.00
12:55 am 00:55 Mostly Cloudy 21 -6 15 -9.3 78 78 NW 9 15 30.27 1025 10 16 0.00 0.00
1:15 am 01:15 Partly Cloudy 21 -6 15 -9.5 77 77 NW 10 17 30.27 1025 10 16 0.00 0.00
1:35 am 01:35 Partly Cloudy 21 -6 14 -9.9 74 74 NW 14 22 30.27 1025 10 16 0.00 0.00
1:55 am 01:55 Cloudy 21 -6 15 -9.5 77 77 NW 14 22 30.27 1025 10 16 0.00 0.00
2:15 am 02:15 Cloudy 21 -6 15 -9.7 75 75 NW 13 20 30.27 1025 10 16 0.00 0.00
2:35 am 02:35 Mostly Cloudy 21 -6.1 15 -9.6 77 77 WNW 13 20 30.27 1025 10 16 0.00 0.00
2:55 am 02:55 Cloudy 22 -5.7 15 -9.5 75 75 WNW 13 20 30.27 1025 10 16 0.00 0.00
3:15 am 03:15 Cloudy 22 -5.6 15 -9.3 75 75 WNW 10 17 30.27 1025 10 16 0.00 0.00
3:35 am 03:35 Cloudy 22 -5.4 15 -9.2 75 75 WNW 14 22 30.24 1024 10 16 0.00 0.00
3:55 am 03:55 Cloudy 23 -5.2 16 -9.1 74 74 WNW 14 22 30.24 1024 10 16 0.00 0.00
4:15 am 04:15 Cloudy 23 -5.1 16 -9.1 74 74 NW 14 22 30.24 1024 10 16 0.00 0.00
4:35 am 04:35 Cloudy 23 -5.1 16 -9 74 74 NW 12 19 30.24 1024 10 16 0.00 0.00
4:55 am 04:55 Cloudy 23 -5 16 -8.9 74 74 NW 12 19 30.27 1025 10 16 0.00 0.00
5:15 am 05:15 Cloudy 23 -5 16 -8.9 74 74 NW 13 20 30.27 1025 10 16 0.00 0.00
5:35 am 05:35 Mostly Cloudy 22 -5.6 15 -9.3 75 75 NW 9 15 30.30 1026 10 16 0.00 0.00
5:55 am 05:55 Partly Cloudy 21 -6.2 15 -9.7 77 77 WNW 9 15 30.30 1026 10 16 0.00 0.00
6:15 am 06:15 Clear 20 -6.7 14 -10 78 78 WNW 7 11 30.30 1026 10 16 0.00 0.00
6:35 am 06:35 Clear 19 -7.5 13 -10.5 79 79 W 6 9 30.30 1026 10 16 0.00 0.00
6:55 am 06:55 Clear 18 -8 13 -10.7 81 81 W 6 9 30.30 1026 10 16 0.00 0.00
7:15 am 07:15 Clear 16 -9 11 -11.4 83 83 W 6 9 30.33 1027 10 16 0.00 0.00
7:35 am 07:35 Clear 17 -8.4 12 -10.9 82 82 W 8 13 30.33 1027 10 16 0.00 0.00
7:55 am 07:55 Sunny 17 -8.5 12 -11.1 82 82 W 9 15 30.33 1027 10 16 0.00 0.00
8:15 am 08:15 Sunny 17 -8.2 12 -11 80 80 WNW 8 13 30.30 1026 10 16 0.00 0.00
8:35 am 08:35 Sunny 18 -7.6 13 -10.7 79 79 WNW 9 15 30.30 1026 10 16 0.00 0.00
8:55 am 08:55 Sunny 19 -7.2 13 -10.8 76 76 WNW 10 17 30.30 1026 10 16 0.00 0.00
9:15 am 09:15 Sunny 20 -6.5 13 -10.5 74 74 NW 9 15 30.30 1026 10 16 0.00 0.00
9:35 am 09:35 Sunny 21 -5.9 13 -10.4 71 71 NW 12 19 30.30 1026 10 16 0.00 0.00
9:55 am 09:55 Sunny 23 -5.2 14 -9.9 70 70 NW 9 15 30.27 1025 10 16 0.00 0.00
10:15 am 10:15 Sunny 24 -4.7 14 -9.9 67 67 NW 12 19 30.27 1025 10 16 0.00 0.00
10:35 am 10:35 Sunny 25 -4 15 -9.3 67 67 NW 12 19 30.27 1025 10 16 0.00 0.00
10:55 am 10:55 Sunny 26 -3.4 16 -8.8 67 67 NW 12 19 30.30 1026 10 16 0.00 0.00
11:15 am 11:15 Sunny 27 -3 16 -8.7 65 65 NW 12 19 30.30 1026 10 16 0.00 0.00
11:35 am 11:35 Sunny 27 -2.7 17 -8.6 64 64 NW 13 20 30.30 1026 10 16 0.00 0.00
11:55 am 11:55 Sunny 27 -2.8 17 -8.6 65 65 NW 13 20 30.30 1026 10 16 0.00 0.00
12:15 pm 12:15 Sunny 28 -2.5 17 -8.4 64 64 NW 13 20 30.27 1025 10 16 0.00 0.00
12:35 pm 12:35 Sunny 28 -2.5 17 -8.4 64 64 WNW 14 22 30.27 1025 10 16 0.00 0.00
12:55 pm 12:55 Sunny 28 -2 18 -7.9 64 64 NW 10 17 30.24 1024 10 16 0.00 0.00
1:15 pm 13:15 Sunny 29 -1.8 17 -8.1 62 62 NW 10 17 30.24 1024 10 16 0.00 0.00
1:35 pm 13:35 Sunny 30 -1.2 18 -7.6 62 62 NW 10 17 30.24 1024 10 16 0.00 0.00
1:55 pm 13:55 Sunny 30 -1 19 -7.4 62 62 NW 13 20 30.24 1024 10 16 0.00 0.00
2:15 pm 14:15 Sunny 31 -0.3 19 -7 61 61 NW 10 17 30.24 1024 10 16 0.00 0.00
2:35 pm 14:35 Sunny 32 0 19 -7.1 59 59 NW 10 17 30.24 1024 10 16 0.00 0.00
2:55 pm 14:55 Sunny 32 0 20 -6.9 60 60 NW 13 20 30.24 1024 10 16 0.00 0.00
3:15 pm 15:15 Sunny 32 0 19 -7 60 60 WNW 8 13 30.24 1024 10 16 0.00 0.00
3:35 pm 15:35 Sunny 32 0.1 20 -6.8 60 60 NW 7 11 30.24 1024 10 16 0.00 0.00
3:55 pm 15:55 Sunny 32 0.1 19 -7.5 57 57 NW 9 15 30.24 1024 10 16 0.00 0.00
4:15 pm 16:15 Sunny 33 0.4 19 -7 58 58 NW 9 15 30.24 1024 10 16 0.00 0.00
4:35 pm 16:35 Mostly Cloudy 32 0.1 20 -6.6 61 61 NNW 9 15 30.24 1024 10 16 0.00 0.00
4:55 pm 16:55 Cloudy 33 0.4 20 -6.7 59 59 NW 10 17 30.24 1024 10 16 0.00 0.00
5:15 pm 17:15 Partly Cloudy 32 0 19 -7.2 59 59 NNW 12 19 30.24 1024 10 16 0.00 0.00
5:35 pm 17:35 Sunny 31 -0.5 19 -7.4 60 60 NW 8 13 30.24 1024 10 16 0.00 0.00
5:55 pm 17:55 Clear 29 -1.4 19 -7.2 65 65 NW 8 13 30.24 1024 10 16 0.00 0.00
6:15 pm 18:15 Clear 29 -1.8 19 -7.5 65 65 NW 7 11 30.24 1024 10 16 0.00 0.00
6:35 pm 18:35 Clear 27 -3 19 -7.2 73 73 WNW 7 11 30.27 1025 10 16 0.00 0.00
6:55 pm 18:55 Clear 28 -2.5 18 -7.7 68 68 WNW 9 15 30.27 1025 10 16 0.00 0.00
7:15 pm 19:15 Clear 27 -2.7 18 -7.7 69 69 WNW 9 15 30.27 1025 10 16 0.00 0.00
7:35 pm 19:35 Clear 26 -3.4 18 -7.8 72 72 WNW 6 9 30.30 1026 10 16 0.00 0.00
7:55 pm 19:55 Clear 26 -3.4 18 -7.9 71 71 WNW 8 13 30.30 1026 10 16 0.00 0.00
8:15 pm 20:15 Clear 26 -3.3 18 -8 70 70 WNW 9 15 30.30 1026 10 16 0.00 0.00
8:35 pm 20:35 Clear 26 -3.4 17 -8.2 70 70 WNW 9 15 30.30 1026 10 16 0.00 0.00
8:55 pm 20:55 Clear 25 -3.7 17 -8.3 71 71 WNW 9 15 30.30 1026 10 16 0.00 0.00
9:15 pm 21:15 Clear 25 -4 17 -8.5 71 71 WNW 9 15 30.30 1026 10 16 0.00 0.00
9:35 pm 21:35 Clear 25 -4.1 17 -8.5 72 72 WNW 9 15 30.30 1026 10 16 0.00 0.00
9:55 pm 21:55 Clear 25 -3.9 17 -8.5 71 71 WNW 13 20 30.30 1026 10 16 0.00 0.00
10:15 pm 22:15 Clear 26 -3.5 17 -8.5 69 69 WNW 10 17 30.30 1026 10 16 0.00 0.00
10:35 pm 22:35 Clear 26 -3.5 17 -8.6 68 68 WNW 13 20 30.30 1026 10 16 0.00 0.00
10:55 pm 22:55 Clear 26 -3.4 17 -8.6 68 68 WNW 13 20 30.30 1026 10 16 0.00 0.00
11:15 pm 23:15 Clear 26 -3.6 16 -8.8 68 68 WNW 14 22 30.30 1026 10 16 0.00 0.00
11:35 pm 23:35 Clear 25 -3.8 16 -9 68 68 WNW 13 20 30.30 1026 10 16 0.00 0.00
11:55 pm 23:55 Clear 25 -3.8 16 -9 68 68 WNW 14 22 30.30 1026 10 16 0.00 0.00

Powered by AerisWeather